Regional Weather Roundup
Issued by NWS

Home | Current Version | Previous Version | Graphics & Text | Print | Product List | Glossary On
Versions: 1 2 3 4 5 6 7 8 9 10 11 12 13 14 15 16 17 18 19 20 21 22 23 24 25 26 27 28 29 30 31 32 33 34 35 36 37 38 39 40 41 42 43 44 45 46 47 48 49 50
000
ASUS45 KBOI 212110
RWRID
WEATHER ROUNDUP FOR IDAHO
NATIONAL WEATHER SERVICE BOISE ID
300 PM MDT SUN SEP 21 2014

NOTE: "FAIR" INDICATES FEW OR NO CLOUDS BELOW 12000 FEET
WITH NO SIGNIFICANT WEATHER AND/OR OBSTRUCTIONS TO VISIBILITY

IDZ012-014-212200-
SOUTHWEST IDAHO


CITY           SKY/WX    TMP DP  RH WIND       PRES   REMARKS
BOISE          CLOUDY    80  43  26 SE17      30.01S
CALDWELL       CLOUDY    81  45  28 SE15G23   30.01F
MOUNTAIN HOME  CLOUDY    77  46  32 E7        30.01F
$$

IDZ016-017-212200-
SOUTHCENTRAL IDAHO


CITY           SKY/WX    TMP DP  RH WIND       PRES   REMARKS
BURLEY         CLOUDY    70  50  49 CALM      30.10F
JEROME         CLOUDY    67  53  61 VRB5      30.10F
TWIN FALLS     LGT RAIN  62  55  77 E9        30.11S
$$

IDZ019>023-212200-
SOUTHEAST IDAHO


CITY           SKY/WX    TMP DP  RH WIND       PRES   REMARKS
IDAHO FALLS    CLOUDY    78  45  30 S16       30.13F
POCATELLO      SUNNY     77  45  32 NW7       30.12F
REXBURG        PTSUNNY   79  42  26 W7        30.13F
$$

IDZ006-010-011-018-031-032-212200-
CENTRAL IDAHO MOUNTAINS


CITY           SKY/WX    TMP DP  RH WIND       PRES   REMARKS
MCCALL         CLOUDY    78  41  26 W7        30.09F
HAILEY         PTSUNNY   72  46  40 SE6       30.18F
STANLEY          N/A     73  36  25 NW5       30.19F
SALMON         PTSUNNY   77  39  25 W3        30.04F
CHALLIS        PTSUNNY   76  41  28 CALM      30.10F
$$

IDZ002-004-006-007-026-212200-
NORTHERN IDAHO


CITY           SKY/WX    TMP DP  RH WIND       PRES   REMARKS
LEWISTON       SUNNY     84  43  23 VRB5      29.90F
LOWELL           N/A     84  54  35 CALM      29.88F
COEUR D`ALENE  SUNNY     86  46  25 NE7       29.95F
MULLAN PASS    SUNNY     71  37  28 VRB3      30.18F
$$



USA.gov is the U.S. government's official web portal to all federal, state and local government web resources and services.